User: anonymous   Login
Location: Unspecified
(0.0000°N, 0.0000°E)
Time: 12:48:47
(UTC+00:00)
Language:

CRYOSAT 2 - Orbit

View from above orbital plane
View from above orbital plane
View from above satellite
View from above satellite

Ground track
Ground track

The orbit data is extracted from the following two-line orbital elements,

1 36508U 10013A   18200.54375521 +.00000049 +00000-0 +11229-4 0  9992
2 36508 092.0355 298.4508 0009657 075.5939 284.6340 14.52171732438846
Epoch (UTC): 19 July 2018 13:03:00
Eccentricity: 0.0009657
inclination: 92.0355°
perigee height: 712 km
apogee height: 725 km
right ascension of ascending node: 298.4508°
argument of perigee: 75.5939°
revolutions per day: 14.52171732
mean anomaly at epoch: 284.6340°
orbit number at epoch: 43884

The dashed part of the orbit path shows where the satellite is in the earth's shadow,  

DLR